Seattle, WA
on Tuesday, November 13, 2012

Tuesday
Previous Day Next Day
Daily Summary
 ActualAverageRecord
Temperature
Mean Temperature °F / °C 46°F / 8°C  
Max Temperature 52°F / 11°C 51°F / 11°C 62°F / 16°C (1997)
Min Temperature 46°F / 8°C 41°F / 5°C 14°F / -10°C (1955)
Degree Days
Heating Degree Days 16 19  
Month to date heating degree days 208 230  
Since 1 July heating degree days 701 827  
Cooling Degree Days 0 0  
Month to date cooling degree days 0 0  
Year to date cooling degree days 177 189  
Moisture
Dew Point 45°F / 7°C   
Average Humidity 87    
Maximum Humidity 93    
Minimum Humidity 80    
Precipitation
Precipitation 0.21 in / 5.33 cm 0.23 in / 5.84 cm 1.68 in / 4.27 cm (1966)
Month to date precipitation 1.93 2.73  
Year to date precipitation 35.06 28.30  
Snow
Snow 0.00 in / 0.00 cm in / cm 0.40 in / 1.02 cm (1964)
Month to date snowfall 0.0  
Since 1 July snowfall 0.0  
Snow Depth 0.00 in / 0.00 cm   
Wind
Wind Speed 6 mph / 9 km/h   
Max Wind Speed 13 mph / 21 km/h   
Max Gust Speed 15 mph / 24 km/h   
Visibility 9 miles / 14 kilometers   
Events Rain   

Key: T is trace of precipitation, MM is missing value
Source: NWS Daily Summary
Time(PST)TemperatureDew PointHumidity Pressure Visibility Wind DirectionWind SpeedGust SpeedPrecipitationEvents Conditions
12:53 AM 48.0°F / 8.9°C 45.0°F / 7.2°C 89% 30.24 in / 1024.0 hPa 10.0 miles / 16.1 kilometers SSE 5.8 mph / 9.3 km/h - N/A   Overcast
1:53 AM 48.0°F / 8.9°C 45.0°F / 7.2°C 89% 30.24 in / 1023.9 hPa 10.0 miles / 16.1 kilometers SSE 5.8 mph / 9.3 km/h - 0.00 in / 0.0 cm   Overcast
2:53 AM 48.0°F / 8.9°C 44.1°F / 6.7°C 86% 30.22 in / 1023.3 hPa 10.0 miles / 16.1 kilometers SE 8.1 mph / 13.0 km/h - 0.00 in / 0.0 cm   Overcast
3:18 AM 46.4°F / 8.0°C 44.6°F / 7.0°C 93% 30.20 in / 1022.6 hPa 5.0 miles / 8.0 kilometers South 4.6 mph / 7.4 km/h - 0.01 in / 0.3 cm Rain Light Rain
3:45 AM 46.4°F / 8.0°C 44.6°F / 7.0°C 93% 30.20 in / 1022.6 hPa 10.0 miles / 16.1 kilometers South 4.6 mph / 7.4 km/h - 0.04 in / 1.0 cm Rain Light Rain
3:53 AM 46.4°F / 8.0°C 44.6°F / 7.0°C 93% 30.20 in / 1022.6 hPa 10.0 miles / 16.1 kilometers South 4.6 mph / 7.4 km/h - N/A Rain Light Rain
4:13 AM 46.4°F / 8.0°C 44.6°F / 7.0°C 93% 30.20 in / 1022.6 hPa 4.0 miles / 6.4 kilometers SE 3.5 mph / 5.6 km/h - 0.02 in / 0.5 cm Rain Light Rain
4:53 AM 46.9°F / 8.3°C 45.0°F / 7.2°C 93% 30.23 in / 1023.5 hPa 4.0 miles / 6.4 kilometers SSE 4.6 mph / 7.4 km/h - 0.04 in / 1.0 cm Rain Light Rain
5:01 AM 46.4°F / 8.0°C 44.6°F / 7.0°C 93% 30.20 in / 1022.6 hPa 5.0 miles / 8.0 kilometers SSE 6.9 mph / 11.1 km/h - 0.00 in / 0.0 cm Rain Light Rain
5:11 AM 48.2°F / 9.0°C 44.6°F / 7.0°C 87% 30.20 in / 1022.6 hPa 5.0 miles / 8.0 kilometers SSE 6.9 mph / 11.1 km/h - 0.00 in / 0.0 cm Rain Light Rain
5:53 AM 46.9°F / 8.3°C 45.0°F / 7.2°C 93% 30.23 in / 1023.5 hPa 10.0 miles / 16.1 kilometers SE 8.1 mph / 13.0 km/h - 0.00 in / 0.0 cm   Overcast
6:53 AM 46.9°F / 8.3°C 44.1°F / 6.7°C 90% 30.22 in / 1023.4 hPa 10.0 miles / 16.1 kilometers SE 10.4 mph / 16.7 km/h - 0.01 in / 0.3 cm   Overcast
7:53 AM 46.9°F / 8.3°C 43.0°F / 6.1°C 86% 30.22 in / 1023.4 hPa 10.0 miles / 16.1 kilometers SSE 9.2 mph / 14.8 km/h - N/A   Overcast
8:53 AM 46.9°F / 8.3°C 44.1°F / 6.7°C 90% 30.23 in / 1023.5 hPa 10.0 miles / 16.1 kilometers SSE 5.8 mph / 9.3 km/h - N/A   Overcast
9:53 AM 48.9°F / 9.4°C 44.1°F / 6.7°C 83% 30.23 in / 1023.5 hPa 10.0 miles / 16.1 kilometers SE 6.9 mph / 11.1 km/h - N/A   Overcast
10:12 AM 48.2°F / 9.0°C 44.6°F / 7.0°C 87% 30.20 in / 1022.6 hPa 10.0 miles / 16.1 kilometers SE 8.1 mph / 13.0 km/h - N/A   Overcast
10:53 AM 50.0°F / 10.0°C 44.1°F / 6.7°C 80% 30.23 in / 1023.5 hPa 10.0 miles / 16.1 kilometers SE 4.6 mph / 7.4 km/h - N/A   Overcast
11:53 AM 51.1°F / 10.6°C 44.1°F / 6.7°C 77% 30.20 in / 1022.6 hPa 10.0 miles / 16.1 kilometers Variable 3.5 mph / 5.6 km/h - 0.00 in / 0.0 cm Rain Light Rain
12:53 PM 51.1°F / 10.6°C 45.0°F / 7.2°C 80% 30.19 in / 1022.3 hPa 10.0 miles / 16.1 kilometers SW 4.6 mph / 7.4 km/h - 0.00 in / 0.0 cm Rain Light Rain
1:47 PM 50.0°F / 10.0°C 46.4°F / 8.0°C 87% 30.17 in / 1021.6 hPa 7.0 miles / 11.3 kilometers SSW 5.8 mph / 9.3 km/h - 0.01 in / 0.3 cm Rain Light Rain
1:53 PM 50.0°F / 10.0°C 46.0°F / 7.8°C 86% 30.19 in / 1022.2 hPa 7.0 miles / 11.3 kilometers SSW 4.6 mph / 7.4 km/h - 0.02 in / 0.5 cm Rain Light Rain
2:25 PM 50.0°F / 10.0°C 46.4°F / 8.0°C 87% 30.16 in / 1021.2 hPa 7.0 miles / 11.3 kilometers SSW 4.6 mph / 7.4 km/h - 0.01 in / 0.3 cm Rain Light Rain
2:53 PM 50.0°F / 10.0°C 46.9°F / 8.3°C 89% 30.18 in / 1021.8 hPa 7.0 miles / 11.3 kilometers South 3.5 mph / 5.6 km/h - 0.03 in / 0.8 cm Rain Light Rain
3:20 PM 50.0°F / 10.0°C 46.4°F / 8.0°C 87% 30.15 in / 1020.9 hPa 7.0 miles / 11.3 kilometers South 4.6 mph / 7.4 km/h - 0.03 in / 0.8 cm Rain Light Rain
3:41 PM 50.0°F / 10.0°C 46.4°F / 8.0°C 87% 30.15 in / 1020.9 hPa 10.0 miles / 16.1 kilometers South 4.6 mph / 7.4 km/h - 0.03 in / 0.8 cm Rain Light Rain
3:53 PM 50.0°F / 10.0°C 46.9°F / 8.3°C 89% 30.18 in / 1021.9 hPa 10.0 miles / 16.1 kilometers South 5.8 mph / 9.3 km/h - 0.03 in / 0.8 cm Rain Light Rain
4:14 PM 50.0°F / 10.0°C 46.4°F / 8.0°C 87% 30.15 in / 1020.9 hPa 9.0 miles / 14.5 kilometers SE 5.8 mph / 9.3 km/h - 0.01 in / 0.3 cm Rain Light Rain
4:30 PM 50.0°F / 10.0°C 46.4°F / 8.0°C 87% 30.15 in / 1020.9 hPa 10.0 miles / 16.1 kilometers SE 5.8 mph / 9.3 km/h - 0.01 in / 0.3 cm Rain Light Rain
4:53 PM 50.0°F / 10.0°C 46.9°F / 8.3°C 89% 30.17 in / 1021.4 hPa 10.0 miles / 16.1 kilometers SE 6.9 mph / 11.1 km/h - 0.02 in / 0.5 cm Rain Light Rain
5:43 PM 48.2°F / 9.0°C 46.4°F / 8.0°C 93% 30.14 in / 1020.5 hPa 10.0 miles / 16.1 kilometers SE 5.8 mph / 9.3 km/h - 0.00 in / 0.0 cm   Overcast
5:53 PM 48.9°F / 9.4°C 46.9°F / 8.3°C 93% 30.17 in / 1021.4 hPa 10.0 miles / 16.1 kilometers ESE 6.9 mph / 11.1 km/h - 0.00 in / 0.0 cm   Overcast
6:00 PM 48.2°F / 9.0°C 46.4°F / 8.0°C 93% 30.14 in / 1020.5 hPa 10.0 miles / 16.1 kilometers ESE 6.9 mph / 11.1 km/h - 0.00 in / 0.0 cm Rain Light Rain
6:53 PM 50.0°F / 10.0°C 46.0°F / 7.8°C 86% 30.17 in / 1021.4 hPa 10.0 miles / 16.1 kilometers SE 4.6 mph / 7.4 km/h - 0.00 in / 0.0 cm Rain Light Rain
7:53 PM 48.9°F / 9.4°C 46.0°F / 7.8°C 90% 30.17 in / 1021.5 hPa 4.0 miles / 6.4 kilometers SSE 4.6 mph / 7.4 km/h - 0.01 in / 0.3 cm Rain Light Rain
8:53 PM 48.9°F / 9.4°C 46.0°F / 7.8°C 90% 30.17 in / 1021.6 hPa 10.0 miles / 16.1 kilometers SE 6.9 mph / 11.1 km/h - 0.01 in / 0.3 cm Rain Light Rain
9:53 PM 48.9°F / 9.4°C 46.0°F / 7.8°C 90% 30.18 in / 1021.8 hPa 10.0 miles / 16.1 kilometers South 6.9 mph / 11.1 km/h - 0.00 in / 0.0 cm Rain Light Rain
10:42 PM 48.2°F / 9.0°C 44.6°F / 7.0°C 87% 30.17 in / 1021.6 hPa 10.0 miles / 16.1 kilometers Calm Calm - 0.00 in / 0.0 cm   Overcast
10:53 PM 48.9°F / 9.4°C 46.0°F / 7.8°C 90% 30.19 in / 1022.3 hPa 10.0 miles / 16.1 kilometers Calm Calm - 0.00 in / 0.0 cm   Overcast
11:12 PM 48.2°F / 9.0°C 46.4°F / 8.0°C 93% 30.16 in / 1021.2 hPa 10.0 miles / 16.1 kilometers South 3.5 mph / 5.6 km/h - N/A   Overcast
11:21 PM 48.2°F / 9.0°C 46.4°F / 8.0°C 93% 30.16 in / 1021.2 hPa 10.0 miles / 16.1 kilometers South 3.5 mph / 5.6 km/h - N/A   Overcast
11:53 PM 48.9°F / 9.4°C 46.0°F / 7.8°C 90% 30.20 in / 1022.6 hPa 9.0 miles / 14.5 kilometers South 4.6 mph / 7.4 km/h - N/A   Overcast
Moon Phase
Nov. 13 Nov. 13 Nov. 20 Nov. 28 Dec. 06
Sunrise:07:11 AM (PST) Moon Rise:06:57 AM (PST)11/13
Sunset:04:34 PM (PST) Moon Set:04:30 PM (PST)11/13

Copyright © 2014 The Weather Underground, Inc.